Погода в Армавире

Поиск расширенной информации на нашем сайте:

Полезная информация:

Новости сайта



02.01.2020
Опубликован Долгосрочный прогноз погоды по городам России и ближнего зарубежья на январь 2020 года.
Карты: Прогноз на январь и февраль 2020 года, Сравнение прогнозируемой аномалии приземной температуры воздуха на январь 2020 года по разным моделям.




Погода в Армавире - сегодня

Время (UTC), дата Ветер
(°,м/с) 
Видим.   Явления Облачность Т
(°С)
Тd
(°С)
f(%) Тe
(°С)
Pmin
(гПа)
dP
(гПа)
Po
(мм)
O2
(г/м3)
Тmin Tmax R s Состояние
почвы
00 16.01.22 250 (З) 10 км  слаб. ливневой снег  10/10 600 м кучево-дожд. 
[Cb cap]
-0.2 -1.9 88 -4  1010  1.1  743  300           
03 16.01.22 260 (З) 10 км  {ливн. осадки}  10/10 600 м 
[Sc]
-0.1 -2.2 86 -4  1011.4  1.4  744  300  -1.7    0.2     
06 16.01.22 270 (З) 6{10}  10 км  {ливн. осадки}  10/10 300 м 
[St]
-0.4 -2.6 85 -4  1014.2  2.7  746  301           
09 16.01.22 270 (З) 10 км    9/9 300 м 
[St]
-0.1 -2.6 83 -4  1016  1.8  747  301           
12 16.01.22 270 (З) 6{10}  4000 м  ливневой снег  10/10 300 м кучево-дожд. 
[Cb cap]
-0.9 -3.7 81 -5  1017.5  1.4  748  303           
15 16.01.22 280 (З) 10 км  в посл. час ливневой снег  9/9 300 м кучево-дожд. 
[Cb cap]
-2.3 -3.9 89 -3  1019.4  1.8  749  305    +0.5  0.0     
18 16.01.22 230 (ЮЗ) 10 км  {ливн. осадки}  10/10 300 м кучево-дожд. 
[Cb cap]
-2.2 -4.5 84 -3  1020.9  1.5  751  305           
21 16.01.22 220 (ЮЗ) 4000 м  ливневой снег  10/10 600 м кучево-дожд. 
[Cb cap]
-2.5 -3.6 92 -6  1021.9  0.9  751  306           
00 17.01.22 250 (З) 10 км  {ливн. осадки}  10/10 600 м кучево-дожд. 
[Cb cap]
-2.9 -5 85 -4  1022.1  0.2  751  307           
03 17.01.22 210 (ЮЗ) 10 км  {ливн. осадки}  10/10 600 м кучево-дожд. 
[Cb cap]
-2.6 -4.5 87 -5  1021.8  -0.3  751  306  -3.6    0.6     
06 17.01.22 210 (ЮЗ) 10 км  {ливн. осадки}  8/8 600 м 
[Sc]
-2.6 -4.9 84 -5  1022.3  0.5  752  306           
09 17.01.22 190 (Ю) 10 км    10/10 600 м 
[Sc]
-0.2 -6.2 64 -3  1020.7  -1.4  750  303           
12 17.01.22 190 (Ю) 10 км    10/10 600 м 
[Sc]
+1.7 -5.2 60 +2  1017.8  -2.7  748  300           
15 17.01.22 130 (ЮВ) 10 км    ясно 
-1.3 -5.8 71 -3  1016.1  -1.9  747  303    +3.8       
18 17.01.22 140 (ЮВ) 10 км    10/0 верхняя 
[Ci]
-3.1 -7.4 72 -5  1013.8  -2.4  745  304           
21 17.01.22 140 (ЮВ) н/о    н/о 
-2.4 -8.7 62 -4  1012.2  -1.5  744  303           
00 18.01.22 150 (ЮВ) 10 км    10/8 600 м верхняя 
[Sc|Ci]
-1.4 -8.6 58 -4  1010.6  -1.6  743  302           
03 18.01.22 140 (ЮВ) 10 км    10/10 600 м 
[Sc]
-1.2 -8.3 58 -4  1008.4  -2  741  301  -3.3      равномерный
мокрый или
старый снег
100% 
06 18.01.22 140 (ЮВ) 4{10}  10 км    10/10 600 м 
[Sc]
+0.4 -8 53 -2  1006.6  -1.7  740  299           
09 18.01.22 150 (ЮВ) 2{10}  10 км    10/10 600 м 
[Sc]
+2.5 -6.7 51 +2  1005.5  -0.9  739  296           
12 18.01.22 290 (З) 10 км    10/1 600 м средняя 
[Sc|Ac und]
+4.5 -4.5 52 +5  1006.5  1.1  740  294           
15 18.01.22 290 (З) 10 км  слаб. ливневой снег  10/10 600 м кучево-дожд. 
[Cb cap]
+0.2 -0.8 93 -3  1010.7  3.9  743  299    +5.1  0.0     
18 18.01.22 180 (Ю) 10 км  в посл. час ливневой снег [диам. отлож. мокр. снега 5 мм]  10/10 300 м кучево-дожд. 
[Cb cap]
-1.2 -2.1 94 -2  1013.6  2.7  745  302           
21 18.01.22 140 (ЮВ) 10 км    10/10 100 м кучево-дожд. 
[Cb cap]
-1.8 -2.5 95 -1  1014.4  0.7  746  303        598  мокрый или
старый снег
50-90% 
00 19.01.22 250 (З) 10 км  слаб. ливневой снег [диам. отлож. мокр. снега 5 мм]  10/10 600 м кучево-дожд. 
[Cb cap]
-1.7 -2.5 94 -4  1015.8  1.4  747  303           
Время (UTC), дата Ветер
(°,м/с) 
Видим.   Явления Облачность Т
(°С)
Тd
(°С)
f(%) Тe
(°С)
Pmin
(гПа)
dP
(гПа)
Po
(мм)
O2
(г/м3)
Тmin Tmax R s Состояние
почвы

Для получения пояснительной информации подведите курсор к названию столбца.

ПОГОДА в Армавире - архив

Всё, что Вы хотите узнать о погоде в Армавире - удобно и подробно!

Выберите нужную дату (начиная с 1 января 2019* года) и нажмите кнопку "Найти".
Будут отображены архивные сводки погоды по пункту Армавир, начиная с указанной даты.


Отображать данные в формате CSV (для использования в таблицах Excel)


Внимание! Наш архив погоды предназначен исключительно для личного некоммерческого использования в познавательных целях. Если Вам необходимы официальные справки о состоянии погоды (для производственных, юридических, коммерческих и т.п. целей), обращайтесь в органы Росгидромета.

*Примечание: данная дата относится к архиву по метеостанциям СССР (Россия, СНГ, Балтия).
Архив по метеостанциям Зарубежной Европы и Азии (кроме Китая) хранится 10 дней, по другим регионам земного шара (Китай, Африка, Америка, Австралия, Океания) - 1 день.

Армавир - район местоположения метеостанции


Название, широта, долгота, высота метеостанции:
Армавир 45°ш. 41.1°д. 159 м над ур. моря [Российская Федерация]

Дополнительная информация

В oтличие oт бoльшинства пoгoдных сайтoв мы публикуем пoдрoбную метеoинфoрмацию в детальнoм прoфессиoнальнoм фoрмате.

Характеристики температуры и влажнoсти вoздуха измеряются на высoте 2 м в тени вдали oт зданий и деревьев.
Скoрoсть ветра измеряется на высoте 10 м (на урoвне рoста челoвека скoрoсть ветра ниже в 1.5-2 раза). Если метеoстанция нахoдится в гoрoде или в лесу, тo скoрoсть ветра занижена на 2-4 м/с пo сравнению с oткрытым местoм. Скoрoсть ветра над акватoриями крупных рек и oзёр, а также на вершинах хoлмoв на 2-5 м/с выше, чем в oбычных услoвиях.
Атмoсфернoе давление в разных тoчках местнoсти мoжет значительнo oтличаться oт давления на метеoстанции, в зависимoсти oт услoвий рельефа (при пoдъёме на 10 м давление пoнижается примернo на 1 мм рт.ст.).